Weather History for YSSY - January, 2013

Change the Weather History Date:

Sunday, January 13, 2013

  Actual Average Record
Temperature  
Mean Temperature 70 °F -  
Max Temperature 74 °F 80 °F - (-1)
Min Temperature 64 °F 65 °F - (-1)
Cooling Degree Days 4    
Growing Degree Days 20 (Base 50)    
Moisture  
Dew Point 64 °F    
Average Humidity 80    
Maximum Humidity 100    
Minimum Humidity 58    
Precipitation  
Precipitation 0.35 in 0.15 in - ()
Sea Level Pressure  
Sea Level Pressure 29.84 in    
Wind  
Wind Speed 11 mph ()    
Max Wind Speed 29 mph    
Max Gust Speed -    
Visibility 5.8 miles    
Events Rain , Thunderstorm    
Averages and records for this station are not official NWS values.
T = Trace of Precipitation, MM = Missing Value Source: Averaged Metar Reports

Daily Weather History Graph

Daily Weather History Graph

Search for Another Location

Airport or City:

Trip Planner

Search our weather history database for the weather conditions in past years. The results will help you decide how hot, cold, wet, or windy it might be!

Date:

Astronomy

Jan. 13, 2013 Rise Set
Actual Time 5:57 AM AEDT 8:09 PM AEDT
Civil Twilight 5:29 AM AEDT 8:38 PM AEDT
Nautical Twilight 4:54 AM AEDT 9:12 PM AEDT
Astronomical Twilight 4:16 AM AEDT 9:50 PM AEDT
Moon 7:20 AM AEDT (1/13) 8:58 PM AEDT (1/13)
Length of Visible Light 15h 08m
Length of Day
14h 11m
New Moon, 2% of the Moon is Illuminated
Jan 13
New Moon
Jan 19
First Quarter
Jan 27
Full
Feb 4
Last Quarter
Feb 10
New

Hourly Weather History & Observations

Time (AEDT) Temp. Dew Point Humidity Pressure Visibility Wind Dir Wind Speed Gust Speed Precip Events Conditions
12:00 AM 70 °F 64 °F 75% 29.92 in 7 mi SSW 9.2 mph - -   Haze
12:00 AM 69.8 °F 64.4 °F 83% 29.92 in 6.2 mi SSW 9.2 mph - N/A   Mostly Cloudy
12:30 AM 69.8 °F 64.4 °F 83% 29.89 in 6.2 mi South 10.4 mph - N/A   Mostly Cloudy
1:00 AM 69.8 °F 64.4 °F 83% 29.86 in 6.2 mi SSE 6.9 mph - N/A   Mostly Cloudy
1:30 AM 69.8 °F 64.4 °F 83% 29.86 in 6.2 mi South 8.1 mph - N/A   Mostly Cloudy
2:00 AM 70 °F 64 °F 74% 29.87 in - South 10.4 mph - -  
2:00 AM 69.8 °F 64.4 °F 83% 29.86 in 6.2 mi South 10.4 mph - N/A   Mostly Cloudy
2:30 AM 69.8 °F 62.6 °F 78% 29.83 in 6.2 mi SSE 8.1 mph - N/A   Mostly Cloudy
3:00 AM 70 °F 64 °F 74% 29.85 in 7 mi South 10.4 mph - -   Haze
3:00 AM 69.8 °F 64.4 °F 83% 29.83 in 6.2 mi South 10.4 mph - N/A   Scattered Clouds
3:30 AM 69.8 °F 64.4 °F 83% 29.80 in 6.2 mi South 6.9 mph - N/A   Scattered Clouds
4:00 AM 69.8 °F 64.4 °F 83% 29.83 in 6.2 mi South 9.2 mph - N/A   Mostly Cloudy
4:30 AM 69.8 °F 64.4 °F 83% 29.83 in 6.2 mi SSW 12.7 mph - N/A   Mostly Cloudy
5:00 AM 69 °F 64 °F 78% 29.84 in - SSE 6.9 mph - -  
5:00 AM 69.8 °F 64.4 °F 83% 29.83 in 6.2 mi SSE 6.9 mph - N/A   Mostly Cloudy
5:30 AM 69.8 °F 64.4 °F 83% 29.86 in 6.2 mi SSW 12.7 mph - N/A   Mostly Cloudy
6:00 AM 70 °F 64 °F 77% 29.89 in 12 mi SSW 10.4 mph - -   Haze
6:00 AM 69.8 °F 64.4 °F 83% 29.89 in 6.2 mi SSW 10.4 mph - N/A   Mostly Cloudy
6:30 AM 69.8 °F 64.4 °F 83% 29.86 in 6.2 mi SSE 9.2 mph - N/A   Overcast
7:00 AM 71.6 °F 62.6 °F 73% 29.86 in 6.2 mi SE 10.4 mph - N/A   Mostly Cloudy
7:30 AM 71.6 °F 62.6 °F 73% 29.86 in 6.2 mi ESE 9.2 mph - N/A   Mostly Cloudy
8:00 AM 72 °F 62 °F 63% 29.90 in - SE 9.2 mph - -  
8:00 AM 71.6 °F 62.6 °F 73% 29.89 in 6.2 mi SE 9.2 mph - N/A   Mostly Cloudy
8:30 AM 71.6 °F 62.6 °F 73% 29.89 in 6.2 mi SE 8.1 mph - N/A   Mostly Cloudy
9:00 AM 72 °F 62 °F 64% 29.87 in 12 mi SE 9.2 mph - -   Haze
9:00 AM 71.6 °F 62.6 °F 73% 29.86 in 6.2 mi SE 9.2 mph - N/A   Mostly Cloudy
9:30 AM 73.4 °F 62.6 °F 69% 29.86 in 6.2 mi ESE 8.1 mph - N/A   Mostly Cloudy
10:00 AM 73.4 °F 62.6 °F 69% 29.86 in 6.2 mi SE 10.4 mph - N/A   Mostly Cloudy
10:30 AM 73.4 °F 62.6 °F 69% 29.83 in 6.2 mi SE 9.2 mph - N/A   Mostly Cloudy
11:00 AM 74 °F 62 °F 58% 29.86 in - SSE 10.4 mph - -  
11:00 AM 73.4 °F 62.6 °F 69% 29.83 in 6.2 mi SSE 10.4 mph - N/A   Mostly Cloudy
11:30 AM 73.4 °F 62.6 °F 69% 29.83 in 6.2 mi SE 10.4 mph - N/A   Mostly Cloudy
12:00 PM 73 °F 63 °F 63% 29.83 in 12 mi SSE 10.4 mph - -   Haze
12:00 PM 73.4 °F 62.6 °F 69% 29.83 in 6.2 mi SSE 10.4 mph - N/A   Overcast
12:30 PM 73.4 °F 62.6 °F 69% 29.83 in 6.2 mi SE 10.4 mph - N/A   Overcast
1:00 PM 71.6 °F 64.4 °F 78% 29.80 in 6.2 mi South 10.4 mph - N/A   Overcast
1:30 PM 71.6 °F 64.4 °F 78% 29.80 in 6.2 mi SE 11.5 mph - N/A   Mostly Cloudy
1:40 PM 69.8 °F 64.4 °F 83% 29.80 in 6.2 mi SE 10.4 mph - N/A Rain , Thunderstorm Light Thunderstorms and Rain
2:00 PM 71 °F 64 °F 71% 29.81 in - SE 10.4 mph - -  
2:00 PM 71.6 °F 64.4 °F 78% 29.80 in 5.0 mi SE 10.4 mph - N/A Rain , Thunderstorm Light Thunderstorms and Rain
2:30 PM 71.6 °F 64.4 °F 78% 29.77 in 4.3 mi SE 11.5 mph - N/A Thunderstorm Thunderstorm
3:00 PM 71 °F 66 °F 78% 29.80 in 4 mi South 12.7 mph - - Rain Light Drizzle
3:00 PM 71.6 °F 66.2 °F 83% 29.80 in 4.3 mi South 12.7 mph - N/A   Light Drizzle
3:14 PM 71.6 °F 64.4 °F 78% 29.77 in 3.7 mi South 15.0 mph - N/A Rain , Thunderstorm Light Thunderstorms and Rain
3:30 PM 69.8 °F 66.2 °F 88% 29.80 in 1.9 mi South 16.1 mph - N/A Thunderstorm Heavy Thunderstorms with Small Hail
4:00 PM 69.8 °F 66.2 °F 88% 29.77 in 3.7 mi South 18.4 mph - N/A Thunderstorm Thunderstorm
4:30 PM 69.8 °F 68.0 °F 94% 29.77 in 3.1 mi South 19.6 mph - N/A Rain , Thunderstorm Light Thunderstorms and Rain
5:00 PM 69 °F 67 °F 92% 29.78 in - SSE 21.9 mph - -  
5:00 PM 68.0 °F 68.0 °F 100% 29.77 in 3.1 mi SSE 21.9 mph - N/A Rain Light Rain Showers
5:23 PM 68.0 °F 66.2 °F 94% 29.77 in 3.7 mi SSE 20.7 mph - N/A   Overcast
5:30 PM 68.0 °F 66.2 °F 94% 29.77 in 3.7 mi South 24.2 mph - N/A   Overcast
6:00 PM 68 °F 66 °F 92% 29.81 in 4 mi SSE 20.7 mph - -   Overcast
6:00 PM 68.0 °F 66.2 °F 94% 29.80 in 4.3 mi SSE 20.7 mph - N/A   Mostly Cloudy
6:30 PM 68.0 °F 66.2 °F 94% 29.83 in 5.0 mi South 23.0 mph - N/A   Mostly Cloudy
7:00 PM 68.0 °F 64.4 °F 88% 29.80 in 3.7 mi SSE 19.6 mph - N/A   Mostly Cloudy
7:30 PM 68.0 °F 66.2 °F 94% 29.83 in 3.7 mi SSE 16.1 mph - N/A   Overcast
8:00 PM 69.8 °F 64.4 °F 83% 29.86 in 3.7 mi SSE 18.4 mph - N/A   Overcast
8:30 PM 69.8 °F 64.4 °F 83% 29.86 in 5.6 mi SE 17.3 mph - N/A   Mostly Cloudy
9:00 PM 70 °F 65 °F 79% 29.89 in 7 mi SSE 16.1 mph - -   Overcast
9:00 PM 69.8 °F 64.4 °F 83% 29.89 in 6.2 mi SSE 16.1 mph - N/A   Overcast
9:30 PM 69.8 °F 64.4 °F 83% 29.89 in 6.2 mi South 12.7 mph - N/A   Overcast
10:00 PM 69.8 °F 66.2 °F 88% 29.89 in 5.6 mi SSW 16.1 mph - N/A Rain Light Rain Showers
10:30 PM 66.2 °F 62.6 °F 88% 29.92 in 6.2 mi South 28.8 mph - N/A   Mostly Cloudy
11:00 PM 65 °F 62 °F 88% 29.91 in - South 26.5 mph - -  
11:00 PM 66.2 °F 62.6 °F 88% 29.89 in 6.2 mi South 26.5 mph - N/A Rain Light Rain Showers
11:30 PM 64.4 °F 60.8 °F 88% 29.89 in 6.2 mi South 21.9 mph - N/A   Overcast